Regional Weather Roundup
Issued by NWS Wakefield, VA

Home | Current Version | Previous Version | Graphics & Text | Print | Product List | Glossary On
Versions: 1 2 3 4 5 6 7 8 9 10 11 12 13 14 15 16 17 18 19 20 21 22 23 24 25 26 27 28 29 30 31 32 33 34 35 36 37 38 39 40 41 42 43 44 45 46 47 48 49 50
000
ASUS41 KAKQ 272015
RWRAKQ

REGIONAL WEATHER ROUNDUP
NATIONAL WEATHER SERVICE WAKEFIELD VA
400 PM EDT SAT AUG 27 2016

Note: "fair" indicates few or no clouds below 12,000 feet with no
significant weather and/or obstructions to visibility. * = Denotes
station may not report precipitation (e.g., rain,snow,etc.),
thunder or fog.

VAZ042-051-052>054-056-272100-
NORTHERN VIRGINIA

CITY           SKY/WX    TMP DP  RH WIND       PRES   REMARKS
WASH NATIONAL  MOSUNNY   92  66  42 E7        30.14F
DULLES         MOSUNNY   75  75 100 CALM      30.10F
FORT BELVOIR   SUNNY     89  65  43 VRB5      30.14F
QUANTICO       MOSUNNY   91  63  39 CALM      30.15F
FREDERICKSBRG*   N/A     92  65  41 E5        30.13F
STAFFORD*      SUNNY     92  59  32 NE7       30.19S
WARRENTON      MOSUNNY   91  61  36 SE3       30.15F
CULPEPER*      MOSUNNY   91  71  50 CALM      30.15F HX  97
MANASSAS*      SUNNY     90  64  43 SE6       30.15F
LEESBURG*      MOSUNNY   91  66  43 SE6       30.16S
WINCHESTER     MOSUNNY   90  68  48 S8        30.16F
FRONT ROYAL*   FAIR      88  70  55 S6        30.15F
LURAY*         MOCLDY    90  68  48 SE5       30.16F
$$

VAZ048-049-060>072-079>083-272100-
CENTRAL AND SOUTH CENTRAL VIRGINIA

CITY           SKY/WX    TMP DP  RH WIND       PRES   REMARKS
RICHMOND       MOSUNNY   93  62  35 NE9       30.12F
CHESTERFIELD*  FAIR      93  57  29 E12       30.13F
PETERSBURG*    MOSUNNY   95  62  33 NE13      30.11F HX  95
HANOVER        SUNNY     91  65  41 NE5       30.15F
TAPPAHANNOCK*  SUNNY     91  59  33 NE7       30.15S
QUINTON*       FAIR      93  65  39 E9G16     30.12F HX  95
CHARLOTTSVILLE MOSUNNY   90  67  46 SE5       30.15F
GORDONSVILLE*  FAIR      90  70  51 NE6       30.14F HX  95
ORANGE*          N/A     90  64  43 NE6       30.17S
LOUISA*        MOSUNNY   93  70  46 E7        30.15S HX  99
BUMPASS*       FAIR      90  69  49 E5        30.15S
FARMVILLE*     MOSUNNY   93  70  46 N10       30.10F HX  99
CREWE*         FAIR      93  68  44 E6        30.11F HX  97
FORT PICKETT*  NOT AVBL
CHASE CITY*    FAIR      94  68  43 E7        30.10F HX  98
CLARKSVILLE*   FAIR      95  72  46 E10       30.08F HX 103
SOUTH HILL*    MOSUNNY   93  71  49 CALM      30.15F HX 100
LAWRENCEVILLE* FAIR      94  70  45 MISG      30.09F HX 100
EMPORIA*       SUNNY     93  68  43 N8        30.10F HX  97
$$

VAZ088>098-272100-
SOUTHEAST VIRGINIA

CITY           SKY/WX    TMP DP  RH WIND       PRES   REMARKS
NORFOLK        SUNNY     85  73  67 NE12      30.12S
VIRGINIA BEACH MOSUNNY   91  72  53 E14G21    30.11F HX  98
NORFOLK NAVAL  MOSUNNY   87  73  62 NE13      30.13F
WEST POINT*    SUNNY     91  62  39 E8        30.14F
SALUDA*        FAIR      88  70  54 E7        30.13F
NEWPORT NEWS   SUNNY     89  66  46 E15       30.12F
LANGLEY AFB    SUNNY     88  70  54 E12       30.11F
FORT EUSTIS    SUNNY     94  70  45 E9        30.09F HX 100
WILLIAMSBURG*  SUNNY     97  72  44 NE5       30.12F HX 105
HR EXEC AP*    FAIR      91  72  52 NE12      30.12F HX  98
FRANKLIN*      SUNNY     92  66  42 E13       30.10F HX  95
US460-WAKEFLD  SUNNY     91  67  44 E8        30.10F
$$

VAZ020-022-025-037-045-272100-
WEST CENTRAL AND SOUTHWEST VIRGINIA

CITY           SKY/WX    TMP DP  RH WIND       PRES   REMARKS
STAUNTON*      SUNNY     88  68  51 SE7       30.19F
WAYNESBORO*    FAIR      87  68  52 E6        30.19F
HOT SPRINGS VA MOSUNNY   80  68  67 SE5       30.31F
LYNCHBURG      MOSUNNY   90  71  53 VRB7      30.14F HX  96
DANVILLE       CLOUDY    81  76  84 SE5       30.11F
SOUTH BOSTON*  MOCLDY    91  70  48 CALM      30.09F HX  96
MARTINSVILLE   MOSUNNY   93  73  52 NE5       30.14F HX 101
ROANOKE        PTSUNNY   88  70  55 SE6       30.16F
BLACKSBURG     MOSUNNY   88  71  58 E8        30.23F
DUBLIN*        SUNNY     87  71  58 N6        30.21F
MARION*        SUNNY     89  67  48 SE5       30.24F
HILLSVILLE*    MOSUNNY   83  71  68 SE5       30.23F
RICHLANDS*     FAIR      87  69  54 S5        30.23S
WISE*          MOSUNNY   88  50  27 S7        30.23F
ABINGDON*      MOSUNNY   84  71  64 N3        30.18F
$$

MDZ021>025-VAZ099-100-272100-
SOUTHERN MARYLAND AND THE DELMARVA PENINSULA

CITY           SKY/WX    TMP DP  RH WIND       PRES   REMARKS
PATUXENT RIVER MOSUNNY   88  63  43 E7        30.14F
BAY BRIDGE APT SUNNY     86  72  62 NW7       30.15F
LEONARDTOWN    SUNNY     86  63  45 E3        30.16S
DOVER          SUNNY     87  70  56 E7        30.13F
GEORGETOWN     NOT AVBL
EASTON         SUNNY     91  68  46 NE6       30.18F HX  95
CAMBRIDGE      SUNNY     88  63  42 CALM      30.13F
SALISBURY      SUNNY     88  66  48 NE7G17    30.14F
OCEAN CITY     SUNNY     82  72  71 NE13      30.15S
WALLOPS ISLAND SUNNY     85  63  47 NE16      30.14S
ACCOMACK*      SUNNY     88  69  53 E6        30.12F
$$

NCZ012>017-030>032-272100-
NORTH CENTRAL AND EASTERN NORTH CAROLINA

CITY           SKY/WX    TMP DP  RH WIND       PRES   REMARKS
ROANOKE RAPIDS FAIR      91  72  52 NE10      30.08F HX  98
RALEIGH        CLOUDY    82  77  84 S5        30.09S
ELIZABETH CITY SUNNY     90  72  55 NE15      30.09F HX  97
AHOSKIE*       SUNNY     91  67  45 NE10      30.09S
EDENTON*       SUNNY     92  72  52 E7        30.09S HX 100
CURRITUCK*       N/A     86  76  71 NE9G16    30.11F HX  96
KILL DEVIL HLS SUNNY     87  81  80 N8        30.08F HX 104
MANTEO         SUNNY     87  75  68 NE9       30.10S HX  96
CAPE HATTERAS  SUNNY     88  74  63 VRB7      30.08F HX  96
TARBORO*       FAIR      95  73  48 NE5       30.07F HX 105
GOLDSBORO      MOSUNNY   94  73  49 E12       30.05F HX 102
WASHINGTON     SUNNY     92  73  53 NE8       30.06F HX 100
GREENVILLE     MOSUNNY   93  72  49 NE8       30.07F HX 100
NEW BERN       PTSUNNY   92  74  55 SE6       30.07F HX 101
WILMINGTON     SUNNY     88  73  61 SE9       30.07F HX  95
$$

VAZ048-272100-
ELSEWHERE

CITY           SKY/WX    TMP DP  RH WIND       PRES   REMARKS
HARRISBURG PA  CLOUDY    89  69  51 SE5       30.15F
BALTIMORE      MOSUNNY   90  64  42 VRB7      30.14F
ANNAPOLIS      SUNNY     89  68  49 NE3       30.15F
ANDREWS AFB    SUNNY     88  65  46 SE7       30.15F
PHILADELPHIA   PTSUNNY   93  58  30 NE6       30.15S
HENDERSON NC   CLOUDY    90  70  51 E7        30.09F HX  95
GREENSBORO     PTSUNNY   92  72  51 CALM      30.10F HX  99
ROCKY MOUNT    MOSUNNY   96  74  48 VRB6      30.07F HX 107
$$

VAZ100-272100-
MARINE

STATION/POSITION TIME  TEMP    WIND        PRES    WAVE   SWELL
                       AIR SEA DIR/SP/G            HT/PER HT/PER
                 (UTC) (F)     (DEG/KT/KT) (MB)    (FT/S) (FT/S)
BRANDYWINE LGT   1900   80     200/  4/  5   N/A
CAPE MAY NJ      1900   81 77   80/  8/ 12 1021.0F
LEWES DE         1900   77 78   80/ 13/ 17 1021.2F
OCEAN-CITY-INLET 1900   79 73   40/  8/ 13 1021.4F
WACHAPREAGUE VA  1900   83 85   70/ 10/ 12 1020.5F
THOMAS POINT MD  2000   84 85   20/  5/  6 1022.3F
GOOSES REEF MD   1900   85 84  360/  6/  8 1021.6F   1
COVE POINT MD    1900   84      20/  5/  9 1021.5F
SOLOMONS ISLAND  1900   85 85  120/  6/  7   N/A
PINEY POINT MD   1900          120/  8/  9   N/A
POTOMAC MD       1900   85 84   40/  6/  8 1020.0F   1
CAMBRIDGE MD     1900   87 84   60/  2/  4 1020.2F
LEWISETTA VA     1900   85 84   80/  4/  6 1020.5F
RAPPAHANNOCK LGT 1900           10/ 10/ 11 1020.9F
STINGRAY PT      1900   85 84  350/  8/ 10 1021.0F   1/ 2
YORK RVR RNG VA  1900   86      90/  9/ 10 1020.0F
YORKTOWN VA      1900   85 84   80/ 10/ 11 1020.1F
JAMESTOWN VA     1900   88 86  110/ 10/ 14   N/A     0
DOMINION TERM VA 1900   85      90/  8/ 12 1020.2F
KIPTOPEKE VA     1900      82   80/  9/ 16   N/A
CHES BAY BRIDGE  1900   81 80   40/ 12/ 14 1020.1F
CAPE HENRY VA    1900   80      30/ 10/ 13   N/A
WILLOUBY STN VA  1900   83      60/ 10/ 11   N/A
CAPE HENRY BUOY  1912      80                N/A     3/ 9
1ST LANDING BUOY 1900   81 81   80/ 12/ 14 1019.9F   2/ 3
CAPE CHARLES BUO 1926      79                N/A     3/10
OFFSHORE WE BUOY 1921      80                N/A     3/10
64NM E OF VA BCH 1950   81 82   40/ 12/ 14 1018.9S   2/ 9   2/ 9
DUCK PIER NC     1900   80 76  360/  8/  9 1018.8F
44100 DUCK FRF   1905      81                N/A     2/10
44056 DUCK FRF   1911      80                N/A     2/ 9
OREGON INLET NC  1900   83 81   20/  9/ 13 1019.0F
HATTERAS NC      1900   84 83  360/  8/ 10 1018.6F
DIAMOND SHLS NC  1850   83 85   40/  6/  8 1019.0    3/10   3/10
CAPE LOOKOUT NC  2000   83     100/ 10/ 11 1018.2F
$$



USA.gov is the U.S. government's official web portal to all federal, state and local government web resources and services.